Voltar ao catálogo

FENGYUN 1C DEB

AtivoSSO
NORAD 31734·DEBRIS·🇨🇳 China

Lançado May 10, 1999 de Taiyuan Satellite Launch Center

Loading…

Próximas Passagens (próximas 24 horas)

TLE

AtualizadoSource: Space-Track

Época: Sep 14, 2026, 05:10 UTC

1 31734U 99025CEH 26257.21581653  .00000505  00000-0  20310-3 0  9995
2 31734  98.5149 247.8385 0101369 276.3699  82.5947 14.29540217  3446

Acompanhe FENGYUN 1C DEB em tempo real com AllMySat

Download on the App Store